RH
50 50 49 46 41 35 33 32 33 35 36 37 39 40 41 42 43 45 46 49 53 57 60 61 62 63 64 66 68 69 71 71 70 71 71 69 64 57 49 42 39 38 39 38 36 36 35 35 35 36 36 37 37 37 37 37 36 35 35 35 35 36 36 37 38 38 39 40 41 42 42 42 41 41 41 42 44 45 46 46 47 47 48 48 47
52 51 47 40 35 33 34 37 40 42 42 42 45 47 48 49 50 53 55 57 60 64 66 68 69 69 69 69 69 69 70 70 69 68 65 59 49 40 34 32 27 24 27 31 32 31 31 30 30 30 29 29 29 30 30 30 30 29 29 29 29 30 31 31 33 34 36 37 38 40 41 41 41 39 39 39 40 41 43 44 45 45 46 47 48
49 48 42 35 34 37 41 45 47 49 49 50 52 53 55 57 57 58 61 62 65 68 69 70 69 69 68 67 66 66 65 64 61 57 52 43 36 31 30 30 24 17 17 23 27 28 28 27 27 27 26 25 25 25 26 26 27 26 26 26 26 27 27 27 27 28 29 31 32 34 37 38 38 38 37 36 36 37 38 39 39 40 41 42 43
43 41 37 34 38 44 48 51 52 53 53 54 54 55 57 59 59 60 63 65 67 67 67 66 65 65 65 64 64 64 62 56 49 43 38 33 31 29 29 27 23 16 13 15 20 24 26 25 25 26 25 25 24 24 25 25 25 25 24 24 24 23 23 23 23 24 25 26 26 27 29 31 32 34 34 34 34 34 34 34 34 35 38 39 40
38 38 36 37 44 50 53 54 55 54 55 55 55 55 57 58 59 60 62 63 63 63 63 64 64 63 61 60 59 57 51 44 38 34 31 30 28 27 26 25 22 15 11 11 14 20 24 25 25 26 25 25 25 25 25 26 26 26 25 23 20 18 17 17 18 19 20 21 22 22 23 23 24 26 27 27 28 28 28 30 31 32 34 36 37
39 40 42 44 49 54 55 56 56 56 56 56 56 57 58 58 58 59 59 58 59 60 61 61 60 59 58 56 53 47 39 35 33 31 29 28 26 25 24 24 19 12 10 11 13 19 24 26 25 25 24 24 24 24 24 25 25 25 26 23 19 18 20 20 20 21 22 22 23 22 21 21 21 21 21 22 23 24 23 24 25 26 28 30 31
41 44 46 47 50 55 56 56 58 57 56 57 57 58 57 55 55 56 55 53 53 55 56 56 56 56 56 51 44 37 33 31 31 29 28 27 25 25 25 22 16 10 10 12 15 20 24 25 24 24 23 23 23 23 23 23 24 24 24 24 24 26 29 29 29 30 30 31 30 28 27 26 25 24 24 24 25 25 26 25 25 25 25 25 25
45 48 49 48 50 54 57 58 58 58 56 56 56 55 54 53 53 52 50 48 49 51 53 52 52 52 48 40 32 30 30 29 29 28 27 26 25 25 25 19 12 9 11 15 19 22 23 24 24 23 23 24 24 24 24 24 24 25 25 26 28 31 33 35 37 37 38 39 38 38 36 35 33 32 31 31 31 31 30 30 30 29 28 28 26
47 49 47 47 50 55 57 59 59 58 56 54 54 53 52 53 53 50 48 47 49 54 55 50 45 42 36 31 28 29 29 28 28 27 26 25 25 25 22 14 8 7 10 13 16 20 21 22 23 23 23 25 25 25 25 26 27 28 31 33 34 35 36 37 37 37 38 40 42 44 44 43 43 41 40 39 38 38 37 37 36 34 32 32 31
45 44 44 47 53 56 56 57 58 57 55 53 53 53 53 53 51 50 50 50 51 54 51 42 36 33 31 29 29 29 28 27 26 26 26 25 25 22 15 9 5 6 7 9 12 16 20 22 24 24 24 25 26 26 28 31 34 37 40 42 42 42 41 39 38 37 39 41 45 48 50 51 52 52 49 48 47 45 43 42 42 39 37 36 35
42 42 45 49 53 54 55 57 58 56 54 52 52 51 51 50 49 50 53 54 52 47 40 34 31 30 30 29 29 28 27 26 26 26 25 24 22 17 10 6 5 5 5 7 9 11 14 18 21 22 23 23 25 27 31 36 40 45 48 51 51 49 47 44 44 44 47 49 50 54 55 56 56 56 55 53 53 53 51 49 48 47 46 44 43
44 47 50 52 55 57 58 57 56 53 51 51 51 49 47 47 48 52 55 52 44 36 32 31 31 30 29 29 28 27 26 26 25 25 24 21 17 12 7 6 5 5 6 7 8 9 10 13 14 17 19 20 21 25 30 35 39 42 47 53 57 57 55 54 55 57 60 62 62 61 61 60 60 60 59 58 57 57 56 56 55 54 53 51 49
50 51 53 56 58 58 56 53 51 49 49 49 50 47 44 45 47 48 46 41 34 30 30 31 30 29 28 28 27 26 25 25 25 23 21 18 13 9 8 8 7 7 8 8 9 9 11 13 15 16 18 20 24 28 31 35 37 39 47 58 63 65 65 65 66 67 70 72 70 65 63 64 66 67 67 65 63 62 60 59 58 57 55 53 52
54 53 55 57 57 54 51 48 47 47 47 47 46 43 42 43 44 40 35 32 30 29 31 31 30 29 28 27 26 25 25 25 23 21 18 14 12 12 12 12 11 10 10 9 9 8 10 13 16 17 18 19 24 31 36 40 41 44 54 65 69 68 70 71 71 73 75 75 72 68 64 65 67 69 68 67 66 66 65 64 63 61 59 56 55
55 54 55 56 55 53 50 48 47 46 47 46 43 41 39 38 37 34 31 29 29 29 30 30 30 29 27 26 25 24 25 23 19 17 15 15 16 17 16 14 13 11 11 10 8 7 7 10 13 15 16 17 23 32 38 42 43 44 50 58 65 70 74 75 75 76 76 75 73 70 66 65 65 65 64 62 62 61 61 62 62 61 59 57 55
55 55 56 54 54 53 51 50 49 49 48 44 40 38 36 34 33 31 29 29 29 29 30 30 29 27 26 25 24 24 22 17 14 16 18 21 21 20 17 14 13 13 11 9 7 6 7 8 11 13 15 17 22 27 31 32 35 35 35 41 56 69 74 76 78 78 78 77 75 72 68 66 66 65 64 62 60 59 59 60 59 58 57 55 54
56 57 57 54 54 54 52 52 51 51 49 43 37 35 34 33 32 30 29 30 31 31 30 29 27 26 25 23 21 19 16 15 17 21 23 23 21 19 16 15 15 14 11 8 7 7 8 10 13 15 17 20 22 24 25 26 27 29 30 35 47 59 66 71 75 77 78 78 76 73 71 71 71 71 71 69 67 66 66 66 65 64 61 59 57
56 57 57 55 56 55 54 53 52 51 48 42 37 34 33 33 31 30 31 32 32 31 30 29 27 24 21 18 15 15 16 18 22 23 22 20 20 18 16 16 17 15 11 8 9 11 13 16 21 23 25 26 28 28 29 30 30 31 33 36 39 45 51 58 64 69 75 78 76 74 73 74 74 75 76 76 75 75 74 74 74 73 71 67 66
54 56 58 59 59 58 56 55 53 50 45 40 37 35 33 32 31 29 30 32 32 31 29 26 22 19 16 16 17 19 20 21 22 21 20 19 18 17 17 18 17 14 10 11 14 18 23 26 29 30 30 30 30 29 30 31 32 33 35 36 36 38 41 44 47 53 59 66 71 73 74 75 76 76 77 77 77 77 77 78 78 77 75 73 71
55 58 60 62 62 59 56 56 54 48 42 39 37 35 33 31 29 29 30 32 30 27 23 19 17 17 18 19 21 21 20 20 20 19 17 16 15 16 18 17 14 12 14 19 23 26 29 30 30 30 31 31 32 33 34 36 38 40 42 43 45 46 48 49 49 49 48 48 53 60 65 70 71 72 73 75 76 77 77 78 79 78 78 77 74
61 62 64 65 64 60 58 56 50 43 40 39 36 33 32 32 33 32 31 29 24 19 17 18 19 20 21 21 21 21 20 18 17 14 13 13 12 13 14 13 13 17 22 26 28 30 30 31 31 33 36 39 40 41 43 44 45 45 45 46 48 49 51 54 57 60 58 53 48 46 49 55 60 64 66 69 73 77 78 79 79 79 78 79 78
66 67 67 66 64 60 56 51 46 42 39 37 34 32 32 32 31 28 24 21 18 17 18 19 19 20 20 21 20 19 17 14 12 10 9 9 10 11 14 16 20 24 27 27 28 30 31 32 36 40 42 43 43 42 43 44 43 42 41 42 42 43 44 45 48 55 61 65 64 58 50 47 49 54 60 65 70 76 79 79 80 80 79 80 81
71 72 71 67 63 57 51 47 44 40 37 34 35 34 31 27 23 21 20 18 17 18 17 16 16 18 19 18 16 13 11 9 8 8 9 11 14 17 20 23 26 27 27 27 29 31 34 38 42 43 43 41 40 40 41 41 40 38 36 35 36 36 38 39 41 44 49 55 64 68 65 58 51 50 54 61 68 75 79 79 80 80 80 81 82
74 74 71 66 59 52 46 41 38 36 36 35 35 32 27 23 21 21 21 19 17 15 15 15 15 15 14 12 10 8 7 7 8 10 14 17 20 22 24 26 26 26 28 30 32 35 38 40 40 39 38 38 38 39 40 38 35 33 30 29 30 33 36 39 41 43 44 47 52 59 66 68 63 56 55 57 64 73 77 77 78 81 82 83 83
75 74 70 64 56 47 40 36 35 36 36 35 32 28 24 23 22 21 21 21 18 15 14 12 10 9 8 7 6 5 6 8 11 16 20 23 24 25 25 25 25 27 30 33 36 39 39 38 37 36 36 36 36 36 35 33 31 30 29 29 31 33 37 43 47 50 50 50 50 52 58 64 66 64 61 59 63 69 72 73 77 81 82 83 84
74 71 66 59 52 43 38 37 37 36 34 32 29 28 26 23 21 21 21 19 14 10 8 7 6 6 6 6 6 6 9 13 18 23 25 25 26 26 24 24 28 32 36 37 38 38 37 35 33 33 32 31 31 31 30 30 29 30 32 33 33 36 41 48 54 59 61 60 58 55 55 58 62 65 65 63 63 67 70 73 79 83 83 84 85
70 65 58 52 47 43 39 38 37 35 33 30 28 28 27 23 20 19 16 12 8 6 6 6 7 8 7 6 8 11 15 20 24 25 25 25 25 24 24 26 31 35 38 38 36 34 32 30 29 28 28 29 30 29 29 30 31 34 37 37 38 43 49 54 58 63 67 68 66 64 61 60 62 64 66 66 67 68 70 73 77 80 82 84 86
62 55 49 45 45 43 41 39 38 37 35 30 26 26 24 20 17 14 11 9 8 8 8 9 10 12 10 9 12 18 21 23 24 24 24 24 24 24 26 28 31 32 33 33 30 27 26 27 28 29 29 30 30 30 30 32 34 38 40 40 43 50 56 57 59 64 70 74 74 73 69 66 64 64 65 65 66 67 70 72 75 77 77 79 82
52 48 45 44 44 43 42 41 40 38 34 28 23 21 19 17 16 13 12 12 12 12 11 12 14 16 12 11 16 21 22 22 23 23 23 23 23 24 26 27 27 28 27 26 25 24 26 29 30 31 32 33 32 33 34 34 36 39 40 42 47 54 57 57 59 65 71 75 77 78 76 74 71 69 67 65 63 62 62 63 65 67 68 70 74
49 47 45 44 42 40 41 41 38 35 30 24 19 17 18 19 19 16 14 15 15 15 15 15 16 16 12 13 18 21 21 22 23 22 22 22 24 25 26 26 26 25 24 24 26 28 29 30 31 32 34 34 34 35 37 37 38 39 40 43 49 55 56 57 60 66 71 75 77 78 79 78 77 76 75 73 71 69 66 64 62 61 60 59 62
49 47 42 39 36 35 36 37 35 31 26 21 17 18 19 20 19 17 16 15 16 16 17 17 17 14 13 17 21 22 21 22 22 21 21 22 24 26 26 26 26 24 25 27 30 30 30 31 33 34 35 36 38 41 44 43 42 42 43 47 52 56 56 58 62 66 70 73 75 76 76 77 78 79 80 80 79 79 78 76 73 71 68 63 59
49 45 39 35 32 31 33 34 33 29 24 20 18 19 20 20 18 17 15 15 16 17 17 17 16 14 16 20 22 21 21 22 21 20 21 22 25 25 25 25 25 24 26 28 29 29 30 32 34 37 37 39 43 47 49 48 47 47 48 52 55 56 57 60 64 67 67 69 72 74 75 74 74 75 77 78 77 76 74 73 73 72 72 70 68
46 41 36 33 31 31 32 32 30 26 22 20 19 20 20 19 18 16 15 15 17 17 17 17 15 15 18 22 22 20 21 21 20 20 22 24 25 24 24 25 24 23 25 26 27 29 30 31 34 38 41 44 48 52 54 53 52 51 53 56 56 57 59 64 67 67 66 67 71 73 73 72 73 73 74 73 71 70 69 69 69 68 68 68 69
41 37 34 32 31 31 32 30 25 22 21 21 21 20 19 17 16 16 15 16 16 17 17 16 14 16 20 22 21 21 22 20 19 21 22 23 23 24 25 24 23 23 26 28 28 28 28 29 34 40 45 50 53 55 56 56 54 54 56 57 57 60 65 68 69 68 66 66 68 71 72 73 73 74 73 72 71 71 71 71 71 71 71 70 68
38 35 32 30 29 30 30 27 22 19 20 21 21 19 17 16 16 16 16 16 16 17 16 15 15 18 21 21 21 21 21 20 19 20 20 20 20 23 23 22 21 25 28 30 30 28 27 30 37 44 50 54 57 58 58 57 56 57 60 61 63 67 71 70 68 67 65 65 68 71 73 74 75 75 74 73 73 73 72 72 72 73 76 78 75
38 35 30 26 25 26 26 22 19 20 21 21 19 17 17 16 16 16 16 16 16 16 14 14 17 19 21 21 21 21 20 19 18 18 18 18 19 21 21 22 25 29 30 31 29 27 26 31 41 49 54 57 60 61 61 60 60 62 65 68 71 72 71 68 66 66 66 67 70 73 76 77 78 77 76 74 73 71 70 71 71 72 76 80 79
39 33 26 22 22 23 21 19 18 20 21 20 17 17 17 17 17 16 15 15 15 15 14 14 17 20 21 20 20 20 19 18 17 17 17 17 19 21 21 24 28 30 30 30 28 26 26 32 42 52 58 61 64 65 64 64 66 67 69 73 75 72 69 68 67 68 70 72 74 77 79 80 79 77 77 76 74 72 72 73 75 75 77 80 81
35 30 24 22 23 25 23 21 20 20 19 18 17 17 17 17 16 15 15 15 15 14 13 14 17 20 21 20 20 20 18 16 16 16 16 18 19 20 22 26 28 29 29 29 27 25 26 31 40 52 60 65 67 68 67 68 72 74 76 78 76 71 69 70 71 73 76 79 80 80 81 80 78 77 77 76 73 73 74 76 77 78 79 82 85
34 31 27 26 26 25 23 21 20 19 18 18 18 18 18 17 17 15 14 14 14 14 14 16 18 21 21 20 20 19 16 14 15 15 16 18 19 20 22 25 26 26 28 28 26 25 27 30 37 48 59 66 70 71 70 72 78 83 85 84 80 77 76 78 80 82 82 83 82 81 80 79 77 76 76 75 75 75 77 79 79 79 79 81 83
35 33 30 29 27 24 21 20 19 19 19 19 18 17 17 18 17 15 13 13 14 14 15 17 19 22 21 20 19 19 16 14 14 15 16 18 19 19 21 23 24 25 27 27 25 25 28 29 31 40 53 66 73 74 73 76 82 88 91 89 87 86 87 86 87 87 85 82 80 79 79 79 78 76 76 75 76 79 82 83 83 83 83 83 84
35 34 32 30 27 23 21 19 18 18 19 19 18 17 18 18 17 15 13 13 14 15 16 18 20 22 21 20 20 21 18 15 14 15 16 18 18 19 21 21 22 24 25 25 25 26 28 28 28 32 44 62 75 78 78 79 82 88 93 94 92 92 90 89 88 86 83 79 78 78 80 81 81 79 79 77 77 79 82 83 85 86 87 87 87
34 34 33 30 26 23 21 18 16 17 18 18 18 18 18 17 16 14 12 12 14 16 17 18 20 22 21 20 21 21 20 18 15 15 17 18 19 20 21 20 20 22 22 23 25 26 27 28 27 27 35 52 71 81 83 81 82 87 92 95 95 92 88 87 88 86 81 77 75 76 78 80 81 82 82 81 79 79 80 80 84 87 89 90 90
35 35 33 29 26 23 21 18 16 17 18 18 19 19 18 17 15 13 12 13 15 17 17 18 20 22 21 20 21 22 20 18 16 16 17 18 19 21 21 19 18 19 20 23 25 27 27 27 28 26 29 41 59 76 85 86 87 90 94 96 95 91 87 88 88 85 79 75 74 74 76 78 79 80 81 82 81 81 81 82 86 89 91 92 92
37 35 32 28 25 23 20 19 18 18 18 19 19 19 18 17 14 12 12 14 17 18 17 17 20 21 21 20 21 22 21 19 17 16 17 18 20 22 21 19 16 17 20 23 26 27 27 28 28 27 27 32 45 63 77 86 91 94 97 98 95 91 88 88 89 85 79 75 73 73 74 76 78 79 80 81 81 82 84 86 89 91 92 92 93
35 32 28 25 23 22 21 19 19 19 19 19 19 19 18 18 15 13 13 15 17 18 18 18 21 22 21 20 22 23 21 20 19 17 17 18 20 22 21 18 15 15 19 23 26 26 27 28 28 27 25 27 34 47 62 77 87 94 97 98 97 93 90 89 87 84 80 76 74 74 74 75 77 78 80 81 83 84 86 88 90 91 91 92 92
33 29 26 24 23 22 21 20 19 19 20 20 19 19 19 18 16 13 13 15 17 18 18 18 21 22 21 20 22 22 22 21 20 18 18 18 20 22 21 18 14 15 18 23 26 26 27 28 29 27 25 24 27 34 46 61 75 87 95 98 97 95 92 90 87 83 79 76 75 76 77 78 78 77 77 79 81 83 85 86 87 88 90 90 89
33 30 26 24 21 20 20 19 18 18 19 20 19 19 19 18 16 14 13 14 17 19 19 19 21 22 22 21 22 22 21 21 20 19 19 19 20 21 21 18 14 14 18 23 26 26 27 28 29 28 25 23 23 26 33 45 58 74 87 95 97 96 95 94 91 87 82 78 76 77 78 80 81 80 79 78 79 80 81 82 83 85 87 89 89
34 29 26 24 21 19 18 18 18 18 18 19 19 19 19 18 16 14 13 14 17 20 21 20 21 22 22 22 22 22 21 21 21 20 20 20 20 21 21 19 13 13 18 23 25 26 26 28 28 28 26 23 22 22 26 33 43 56 70 82 91 95 96 96 96 93 89 85 82 80 79 80 82 83 83 83 83 84 84 83 83 83 84 85 87
34 29 26 24 21 20 19 19 18 18 18 18 19 19 19 18 17 14 13 14 17 20 22 21 21 22 23 22 23 23 22 21 21 20 21 21 20 20 21 19 14 12 17 23 25 25 26 27 28 29 28 25 23 21 22 25 31 39 49 60 71 80 87 91 94 94 93 92 90 89 87 85 84 85 85 85 86 87 87 86 86 85 85 84 83
32 29 27 25 22 20 20 19 19 19 19 19 20 19 19 19 17 15 13 14 17 20 21 21 22 23 23 23 22 22 21 20 20 20 20 21 21 20 21 19 14 12 17 22 25 25 26 27 27 28 28 27 24 22 21 21 24 28 34 41 48 56 64 72 78 84 88 90 91 92 92 91 90 88 88 87 88 89 89 89 88 87 86 86 85
30 29 28 26 23 21 20 19 18 19 19 19 20 20 20 20 18 16 14 15 17 19 20 21 22 23 23 22 22 20 18 18 18 18 19 21 21 20 21 19 14 11 16 21 24 25 26 27 27 28 28 28 26 24 21 20 21 22 25 29 33 37 41 47 53 61 67 73 77 81 84 85 85 86 86 86 87 87 88 90 91 91 90 90 89